Location: Cuzcurrita-R�o Tir�n
(42.5415°N, 2.9642°W)
Time: 20:58:02
(UTC+00:00)

USA 267 - Pass Details

Date: 17 January 2021
Orbit: 1099 x 1108 km, 123.0° (Epoch: 03 March)

Event Time Altitude Azimuth Distance (km) Brightness Sun altitude
Exits shadow 20:17:19 61° 317° (NW) 1,234 3.5 -34.7°
Drops below altitude 10° 20:23:32 10° 248° (WSW) 2,956 6.1 -35.9°
Sets 20:26:02 0° 245° (WSW) 3,913 6.9 -36.3°
